Regional Weather Roundup
Issued by NWS

Home | Current Version | Previous Version | Graphics & Text | Print | Product List | Glossary On
Versions: 1 2 3 4 5 6 7 8 9 10 11 12 13 14 15 16 17 18 19 20 21 22 23 24 25 26 27 28 29 30 31 32 33 34 35 36 37 38 39 40 41 42 43 44 45 46 47 48 49 50
000
ASUS43 KBIS 180502
RWRND

NORTH DAKOTA REGIONAL WEATHER ROUNDUP
NATIONAL WEATHER SERVICE BISMARCK ND
1200 AM CDT WED OCT 18 2017

NOTE: "FAIR" INDICATES FEW OR NO CLOUDS BELOW 12,000 FEET WITH NO
SIGNIFICANT WEATHER AND/OR OBSTRUCTIONS TO VISIBILITY.


NDZ001>003-009>011-017-180600-
NORTHWEST NORTH DAKOTA

CITY           SKY/WX    TMP DP  RH WIND       PRES   REMARKS
WILLISTON      CLOUDY    60  27  28 SW12      29.49S
MINOT          CLOUDY    65  26  23 SW16G24   29.48F
MINOT AFB      CLOUDY    65  26  23 SW21      29.45F
$$

NDZ018>021-031>035-040>046-180600-
SOUTHWEST NORTH DAKOTA

CITY           SKY/WX    TMP DP  RH WIND       PRES   REMARKS
BISMARCK       CLOUDY    63  25  23 SW10      29.62F
DICKINSON      PTCLDY    56  25  30 S15       29.61F
GARRISON         N/A     62  28  27 SW16      29.55F
HETTINGER ARPT PTCLDY    59  24  26 SW13      29.68F
$$

NDZ004>008-012>016-024-026-027-054-180600-
NORTHEAST NORTH DAKOTA

CITY           SKY/WX    TMP DP  RH WIND       PRES   REMARKS
GRAND FORKS    CLOUDY    53  37  54 S12       29.58F
GRND FRKS AFB  CLOUDY    61  33  35 SW14G21   29.58F
DEVILS LAKE    CLOUDY    58  34  40 S18       29.55F
$$

NDZ022-023-025-028>030-036>039-047>053-180600-
SOUTHEAST NORTH DAKOTA

CITY           SKY/WX    TMP DP  RH WIND       PRES   REMARKS
FARGO          CLEAR     55  41  59 S12       29.67F
JAMESTOWN      CLOUDY    52  36  54 S8        29.64F
$$





USA.gov is the U.S. government's official web portal to all federal, state and local government web resources and services.